Message
Cliquez sur le résultat pour voir la partie ou sur les pseudos pour voir leur fiche.
Les parties sont maintenant conservées 3 ans dans la base.
Cliquez ici pour télécharger les parties au format PGN de wendydydy en 2019.
Cliquez ici pour télécharger les parties au format PGN de wendydydy en 2018.
Cliquez ici pour télécharger les parties au format PGN de wendydydy en 2017. ( Depuis le 21/06/2017 les parties étaient conservées moins longtemps avant )


Date
Tournoi
Blancs
Noirs
Res.
Elo Adv.
Rd Adv.
Var. RD
Var. Elo
17/03/19 18:28Tournoi n19435panchoawendydydy1-0
17/03/19 14:35Tournoi n19435wendydydysam940-1
13/03/19 23:35Tournoi n19435mathador93wendydydy1-0
09/03/19 16:18Tournoi n19435wendydydyjlr0-1
25/02/19 22:33Défi( 5J+36H/c 30J Max )wendydydyjulie891-0100074.2594.21(-0.77)1487.84(+3.09)
25/02/19 22:33Défi( 5J+36H/c 30J Max )wendydydybastien751-01169.025092.62(-1.59)1494.68(+6.84)
06/02/19 16:51Tournoi n18381azurwendydydy1-01541.8556.8894.98(+13.02)1484.75(-23.1)
25/01/19 02:43Défi( 5J+36H/c 30J Max )wendydydyjabberwocky0-1
30/11/18 08:40Défipatauwendydydy1-01757.885081.97(-1.47)1507.85(-7.69)
11/11/18 01:36Tournoi n18381coyotovwendydydy1-01629.3353.5383.44(-2.25)1515.54(-14.32)
03/11/18 13:15Tournoi n18381wendydydylamagouille0-11613.567.7185.69(+3.35)1529.86(-16.83)
25/10/18 01:38Défiwendydydybastian1-0100061.5882.33(-0.38)1546.69(+1.69)
17/10/18 15:18Tournoi n17993wendydydyloal1-0
14/09/18 19:31Défibastien1wendydydy0-1
14/09/18 19:31Défibastien1wendydydy0-1
14/09/18 15:25Défibastien1wendydydy0-1
13/09/18 06:50Défithegamewendydydy1-0
12/09/18 08:13Défiwendydydythegame0-1
11/09/18 08:28Défiwendydydythegame0-1
10/09/18 16:50Défithegamewendydydy1-0
06/09/18 05:16Tournoi n18381wendydydypetitlulu641-0
27/08/18 05:55Défibastien1wendydydy0-1
02/08/18 04:11Défiwendydydyroidechecs0-1
23/06/18 19:05Défipatauwendydydy1-0
01/06/18 21:43Tournoi n17993wendydydyafeyte0-1
25/05/18 17:33Défipatauwendydydy1-0
16/05/18 01:45Défihberliozwendydydy1-0
06/05/18 02:11Tournoi n17993tiounetwendydydy1-0
24/04/18 15:06Défipatauwendydydy1/2-1/2
11/04/18 16:38Tournoi n17993wenoketowendydydy0-1
09/04/18 18:40Tournoi n17865wendydydytartu1/2-1/2
28/03/18 23:48Tournoi n17865wendydydyalbescab1-0
28/03/18 19:33Tournoi n17865legrillonwendydydy0-1
08/03/18 02:21Tournoi n17865coyotovwendydydy0-1
03/03/18 02:18Tournoi n17794janul13wendydydy0-1
02/03/18 22:56Tournoi n17653yann56wendydydy1-0
02/03/18 22:56Tournoi n17794bricekillerwendydydy0-1
02/03/18 18:51Tournoi n17794wendydydypanchoa1-0
27/02/18 08:46Tournoi n17794wendydydyspectre1-0
16/02/18 14:26Défiwendydydypatau1/2-1/2
09/02/18 12:20Tournoi n17653oliver5wendydydy1-0
09/02/18 12:20Tournoi n17653wendydydylegrillon0-1
01/02/18 21:23Tournoi n17653wendydydywenoketo1-0
23/01/18 13:15Tournoi n17514artistepeintrewendydydy0-1
10/01/18 16:06Tournoi n17514tiounetwendydydy0-1
08/01/18 21:06Tournoi n17398yann56wendydydy1-0
06/01/18 22:35Tournoi n17514wendydydywenoketo1-0
30/12/17 21:10Défiantoinenonowendydydy0-1
24/12/17 20:10Tournoi n17514wendydydyjlr1-0
16/12/17 23:30Défiwendydydyvb830-1
16/12/17 02:25Tournoi n17398wendydydyjanul130-1
09/12/17 20:41Tournoi n17398wendydydyjlr0-1
09/12/17 03:03Tournoi n17398louis67wendydydy1-0
04/12/17 19:56Défiwendydydyantoinenono0-1
27/11/17 22:53Tournoi n17289mokannewendydydy1-0
25/11/17 17:30Défiwendydydyantoinenono1-0
18/11/17 02:33Défiwendydydyramo0-1
14/11/17 12:43Défiwendydydyantoinenono1-0
13/11/17 12:36Tournoi n17289ascensseurwendydydy1-0
13/11/17 12:36Tournoi n17289wendydydyffred1-0
05/11/17 23:05Tournoi n17289wendydydyalbescab0-1
01/11/17 13:21Défiwendydydyhberlioz0-1
01/11/17 12:01Défiantoinenonowendydydy0-1
31/10/17 23:01Tournoi n17181wendydydyclisson440-1
29/10/17 16:00Tournoi n17181mokannewendydydy1-0
26/10/17 20:58Tournoi n17181ascensseurwendydydy1-0
25/10/17 20:20Défiwendydydyantoinenono1-0
20/10/17 22:38Tournoi n17181wendydydydavchess0-1
17/10/17 20:20Défiantoinenonowendydydy0-1
13/10/17 09:31Tournoi n17078labelette77wendydydy1-0
03/10/17 13:03Tournoi n17078wendydydytiounet1-0
03/10/17 08:58Tournoi n17078wendydydyffred1-0
03/10/17 03:15Tournoi n17078marcowendydydy0-1
27/09/17 01:18Défiwendydydyantoinenono1-0
13/09/17 01:55Tournoi n16857leredoutablewendydydy1-0
09/09/17 12:48Défiantoinenonowendydydy1-0
08/09/17 22:11Défitemistocleswendydydy0-1
06/09/17 10:13Défihberliozwendydydy1-0
26/08/17 12:46Défiwendydydyantoinenono1-0
24/08/17 19:01Tournoi n16857wendydydylegrillon0-1
22/08/17 21:55Tournoi n16789wendydydythewolf1-0
21/08/17 22:35Tournoi n16857wendydydysimer0-1
28/07/17 09:08Tournoi n16857versonwendydydy1-0
27/07/17 10:31Défihberliozwendydydy0-1
27/07/17 08:40Tournoi n16735wendydydyraymar1-0
21/07/17 19:16Défiantoinenonowendydydy0-1
12/07/17 23:46Tournoi n16789marcowendydydy0-1
10/07/17 23:18Défiwendydydyvb831-0
08/07/17 13:05Tournoi n16789wendydydycoyotov0-1
08/07/17 03:55Tournoi n16789qasarwendydydy1/2-1/2
06/07/17 06:15Défiwendydydyantoinenono1-0
05/07/17 17:35Tournoi n16735upsalinwendydydy0-1
30/06/17 22:55Défiwendydydyantoinenono1-0
27/06/17 01:21Tournoi n16735wendydydytiounet0-1
26/06/17 09:28Tournoi n16614wendydydytimeck1/2-1/2
25/06/17 12:45Tournoi n16735panchoawendydydy0-1
25/06/17 12:45Défiantoinenonowendydydy0-1
23/06/17 03:41Tournoi n16716leredoutablewendydydy1-0